Year,Month,Day,Hour,Minute,Value (Times are PST for temperature in C)
2020,04,15,00,00,10.10
2020,04,15,00,01,10.10
2020,04,15,00,02,10.20
2020,04,15,00,03,10.20
2020,04,15,00,04,10.20
2020,04,15,00,05,10.20
2020,04,15,00,06,10.30
2020,04,15,00,07,10.30
2020,04,15,00,08,10.30
2020,04,15,00,09,10.30
2020,04,15,00,10,10.40
2020,04,15,00,11,10.40
2020,04,15,00,12,10.50
2020,04,15,00,13,10.50
2020,04,15,00,14,10.50
2020,04,15,00,15,10.60
2020,04,15,00,16,10.60
2020,04,15,00,17,10.70
2020,04,15,00,18,10.80
2020,04,15,00,19,10.80
2020,04,15,00,20,10.80
2020,04,15,00,21,10.90
2020,04,15,00,22,10.90
2020,04,15,00,23,11.00
2020,04,15,00,24,11.00
2020,04,15,00,25,11.00
2020,04,15,00,26,11.10
2020,04,15,00,27,11.10
2020,04,15,00,28,11.10
2020,04,15,00,29,11.10
2020,04,15,00,30,11.10
2020,04,15,00,31,11.10
2020,04,15,00,32,11.10
2020,04,15,00,33,11.10
2020,04,15,00,34,11.10
2020,04,15,00,35,11.10
2020,04,15,00,36,11.00
2020,04,15,00,37,11.00
2020,04,15,00,38,11.00
2020,04,15,00,39,10.90
2020,04,15,00,40,10.90
2020,04,15,00,41,10.90
2020,04,15,00,42,10.90
2020,04,15,00,43,10.80
2020,04,15,00,44,10.80
2020,04,15,00,45,10.80
2020,04,15,00,46,10.70
2020,04,15,00,47,10.70
2020,04,15,00,48,10.70
2020,04,15,00,49,10.60
2020,04,15,00,50,10.60
2020,04,15,00,51,10.50
2020,04,15,00,52,10.50
2020,04,15,00,53,10.40
2020,04,15,00,54,10.40
2020,04,15,00,55,10.30
2020,04,15,00,56,10.20
2020,04,15,00,57,10.20
2020,04,15,00,58,10.10
2020,04,15,00,59,10.10
2020,04,15,01,00,10.00
2020,04,15,01,01,10.00
2020,04,15,01,02,9.90
2020,04,15,01,03,9.90
2020,04,15,01,04,9.90
2020,04,15,01,05,9.80
2020,04,15,01,06,9.80
2020,04,15,01,07,9.80
2020,04,15,01,08,9.80
2020,04,15,01,09,9.80
2020,04,15,01,10,9.80
2020,04,15,01,11,9.80
2020,04,15,01,12,9.80
2020,04,15,01,13,9.70
2020,04,15,01,14,9.70
2020,04,15,01,15,9.70
2020,04,15,01,16,9.80
2020,04,15,01,17,9.80
2020,04,15,01,18,9.80
2020,04,15,01,19,9.80
2020,04,15,01,20,9.80
2020,04,15,01,21,9.90
2020,04,15,01,22,9.90
2020,04,15,01,23,9.90
2020,04,15,01,24,9.90
2020,04,15,01,25,9.90
2020,04,15,01,26,9.90
2020,04,15,01,27,9.90
2020,04,15,01,28,9.90
2020,04,15,01,29,9.90
2020,04,15,01,30,9.90
2020,04,15,01,31,9.80
2020,04,15,01,32,9.80
2020,04,15,01,33,9.80
2020,04,15,01,34,9.80
2020,04,15,01,35,9.80
2020,04,15,01,36,9.80
2020,04,15,01,37,9.80
2020,04,15,01,38,9.80
2020,04,15,01,39,9.80
2020,04,15,01,40,9.80
2020,04,15,01,41,9.90
2020,04,15,01,42,9.90
2020,04,15,01,43,9.90
2020,04,15,01,44,9.80
2020,04,15,01,45,9.90
2020,04,15,01,46,9.80
2020,04,15,01,47,9.80
2020,04,15,01,48,9.80
2020,04,15,01,49,9.80
2020,04,15,01,50,9.80
2020,04,15,01,51,9.80
2020,04,15,01,52,9.80
2020,04,15,01,53,9.80
2020,04,15,01,54,9.80
2020,04,15,01,55,9.80
2020,04,15,01,56,9.80
2020,04,15,01,57,9.80
2020,04,15,01,58,9.80
2020,04,15,01,59,9.70
2020,04,15,02,00,9.70
2020,04,15,02,01,9.70
2020,04,15,02,02,9.70
2020,04,15,02,03,9.70
2020,04,15,02,04,9.70
2020,04,15,02,05,9.70
2020,04,15,02,06,9.70
2020,04,15,02,07,9.60
2020,04,15,02,08,9.60
2020,04,15,02,09,9.60
2020,04,15,02,10,9.60
2020,04,15,02,11,9.50
2020,04,15,02,12,9.50
2020,04,15,02,13,9.40
2020,04,15,02,14,9.40
2020,04,15,02,15,9.40
2020,04,15,02,16,9.30
2020,04,15,02,17,9.30
2020,04,15,02,18,9.30
2020,04,15,02,19,9.30
2020,04,15,02,20,9.20
2020,04,15,02,21,9.20
2020,04,15,02,22,9.20
2020,04,15,02,23,9.20
2020,04,15,02,24,9.20
2020,04,15,02,25,9.20
2020,04,15,02,26,9.20
2020,04,15,02,27,9.20
2020,04,15,02,28,9.20
2020,04,15,02,29,9.20
2020,04,15,02,30,9.20
2020,04,15,02,31,9.20
2020,04,15,02,32,9.20
2020,04,15,02,33,9.20
2020,04,15,02,34,9.20
2020,04,15,02,35,9.20
2020,04,15,02,36,9.20
2020,04,15,02,37,9.20
2020,04,15,02,38,9.20
2020,04,15,02,39,9.20
2020,04,15,02,40,9.20
2020,04,15,02,41,9.20
2020,04,15,02,42,9.20
2020,04,15,02,43,9.20
2020,04,15,02,44,9.30
2020,04,15,02,45,9.30
2020,04,15,02,46,9.30
2020,04,15,02,47,9.30
2020,04,15,02,48,9.30
2020,04,15,02,49,9.20
2020,04,15,02,50,9.20
2020,04,15,02,51,9.20
2020,04,15,02,52,9.20
2020,04,15,02,53,9.30
2020,04,15,02,54,9.30
2020,04,15,02,55,9.30
2020,04,15,02,56,9.30
2020,04,15,02,57,9.30
2020,04,15,02,58,9.40
2020,04,15,02,59,9.40
2020,04,15,03,00,9.40
2020,04,15,03,01,9.50
2020,04,15,03,02,9.50
2020,04,15,03,03,9.50
2020,04,15,03,04,9.50
2020,04,15,03,05,9.60
2020,04,15,03,06,9.60
2020,04,15,03,07,9.60
2020,04,15,03,08,9.60
2020,04,15,03,09,9.60
2020,04,15,03,10,9.60
2020,04,15,03,11,9.60
2020,04,15,03,12,9.60
2020,04,15,03,13,9.60
2020,04,15,03,14,9.60
2020,04,15,03,15,9.60
2020,04,15,03,16,9.60
2020,04,15,03,17,9.60
2020,04,15,03,18,9.60
2020,04,15,03,19,9.60
2020,04,15,03,20,9.60
2020,04,15,03,21,9.60
2020,04,15,03,22,9.60
2020,04,15,03,23,9.60
2020,04,15,03,24,9.60
2020,04,15,03,25,9.60
2020,04,15,03,26,9.60
2020,04,15,03,27,9.60
2020,04,15,03,28,9.60
2020,04,15,03,29,9.60
2020,04,15,03,30,9.50
2020,04,15,03,31,9.50
2020,04,15,03,32,9.40
2020,04,15,03,33,9.40
2020,04,15,03,34,9.30
2020,04,15,03,35,9.30
2020,04,15,03,36,9.20
2020,04,15,03,37,9.20
2020,04,15,03,38,9.10
2020,04,15,03,39,9.10
2020,04,15,03,40,9.00
2020,04,15,03,41,9.00
2020,04,15,03,42,8.90
2020,04,15,03,43,8.90
2020,04,15,03,44,8.90
2020,04,15,03,45,8.90
2020,04,15,03,46,8.90
2020,04,15,03,47,8.90
2020,04,15,03,48,8.80
2020,04,15,03,49,8.90
2020,04,15,03,50,8.90
2020,04,15,03,51,8.90
2020,04,15,03,52,8.90
2020,04,15,03,53,8.90
2020,04,15,03,54,8.80
2020,04,15,03,55,8.80
2020,04,15,03,56,8.80
2020,04,15,03,57,8.80
2020,04,15,03,58,8.80
2020,04,15,03,59,8.80
2020,04,15,04,00,8.70
2020,04,15,04,01,8.70
2020,04,15,04,02,8.70
2020,04,15,04,03,8.70
2020,04,15,04,04,8.70
2020,04,15,04,05,8.70
2020,04,15,04,06,8.70
2020,04,15,04,07,8.70
2020,04,15,04,08,8.70
2020,04,15,04,09,8.60
2020,04,15,04,10,8.60
2020,04,15,04,11,8.60
2020,04,15,04,12,8.60
2020,04,15,04,13,8.50
2020,04,15,04,14,8.50
2020,04,15,04,15,8.50
2020,04,15,04,16,8.40
2020,04,15,04,17,8.40
2020,04,15,04,18,8.40
2020,04,15,04,19,8.40
2020,04,15,04,20,8.40
2020,04,15,04,21,8.30
2020,04,15,04,22,8.30
2020,04,15,04,23,8.30
2020,04,15,04,24,8.30
2020,04,15,04,25,8.30
2020,04,15,04,26,8.30
2020,04,15,04,27,8.30
2020,04,15,04,28,8.30
2020,04,15,04,29,8.30
2020,04,15,04,30,8.30
2020,04,15,04,31,8.30
2020,04,15,04,32,8.30
2020,04,15,04,33,8.20
2020,04,15,04,34,8.20
2020,04,15,04,35,8.30
2020,04,15,04,36,8.30
2020,04,15,04,37,8.30
2020,04,15,04,38,8.30
2020,04,15,04,39,8.30
2020,04,15,04,40,8.30
2020,04,15,04,41,8.30
2020,04,15,04,42,8.30
2020,04,15,04,43,8.30
2020,04,15,04,44,8.30
2020,04,15,04,45,8.30
2020,04,15,04,46,8.30
2020,04,15,04,47,8.30
2020,04,15,04,48,8.30
2020,04,15,04,49,8.30
2020,04,15,04,50,8.30
2020,04,15,04,51,8.20
2020,04,15,04,52,8.20
2020,04,15,04,53,8.20
2020,04,15,04,54,8.20
2020,04,15,04,55,8.20
2020,04,15,04,56,8.20
2020,04,15,04,57,8.20
2020,04,15,04,58,8.20
2020,04,15,04,59,8.20
2020,04,15,05,00,8.20
2020,04,15,05,01,8.20
2020,04,15,05,02,8.20
2020,04,15,05,03,8.20
2020,04,15,05,04,8.20
2020,04,15,05,05,8.10
2020,04,15,05,06,8.10
2020,04,15,05,07,8.10
2020,04,15,05,08,8.10
2020,04,15,05,09,8.10
2020,04,15,05,10,8.10
2020,04,15,05,11,8.10
2020,04,15,05,12,8.10
2020,04,15,05,13,8.10
2020,04,15,05,14,8.10
2020,04,15,05,15,8.10
2020,04,15,05,16,8.10
2020,04,15,05,17,8.10
2020,04,15,05,18,8.10
2020,04,15,05,19,8.10
2020,04,15,05,20,8.10
2020,04,15,05,21,8.10
2020,04,15,05,22,8.10
2020,04,15,05,23,8.10
2020,04,15,05,24,8.10
2020,04,15,05,25,8.10
2020,04,15,05,26,8.10
2020,04,15,05,27,8.10
2020,04,15,05,28,8.10
2020,04,15,05,29,8.00
2020,04,15,05,30,8.00
2020,04,15,05,31,7.90
2020,04,15,05,32,7.90
2020,04,15,05,33,7.90
2020,04,15,05,34,7.80
2020,04,15,05,35,7.80
2020,04,15,05,36,7.80
2020,04,15,05,37,7.80
2020,04,15,05,38,7.70
2020,04,15,05,39,7.70
2020,04,15,05,40,7.70
2020,04,15,05,41,7.70
2020,04,15,05,42,7.60
2020,04,15,05,43,7.60
2020,04,15,05,44,7.60
2020,04,15,05,45,7.60
2020,04,15,05,46,7.50
2020,04,15,05,47,7.50
2020,04,15,05,48,7.40
2020,04,15,05,49,7.40
2020,04,15,05,50,7.40
2020,04,15,05,51,7.40
2020,04,15,05,52,7.30
2020,04,15,05,53,7.30
2020,04,15,05,54,7.30
2020,04,15,05,55,7.20
2020,04,15,05,56,7.20
2020,04,15,05,57,7.20
2020,04,15,05,58,7.20
2020,04,15,05,59,7.10
2020,04,15,06,00,7.10
2020,04,15,06,01,7.10
2020,04,15,06,02,7.10
2020,04,15,06,03,7.10
2020,04,15,06,04,7.00
2020,04,15,06,05,7.00
2020,04,15,06,06,7.00
2020,04,15,06,07,7.00
2020,04,15,06,08,7.00
2020,04,15,06,09,6.90
2020,04,15,06,10,6.90
2020,04,15,06,11,6.90
2020,04,15,06,12,6.90
2020,04,15,06,13,6.90
2020,04,15,06,14,6.90
2020,04,15,06,15,6.90
2020,04,15,06,16,6.90
2020,04,15,06,17,6.90
2020,04,15,06,18,6.80
2020,04,15,06,19,6.80
2020,04,15,06,20,6.80
2020,04,15,06,21,6.80
2020,04,15,06,22,6.80
2020,04,15,06,23,6.80
2020,04,15,06,24,6.80
2020,04,15,06,25,6.80
2020,04,15,06,26,6.80
2020,04,15,06,27,6.80
2020,04,15,06,28,6.80
2020,04,15,06,29,6.80
2020,04,15,06,30,6.80
2020,04,15,06,31,6.80
2020,04,15,06,32,6.80
2020,04,15,06,33,6.80
2020,04,15,06,34,6.80
2020,04,15,06,35,6.80
2020,04,15,06,36,6.80
2020,04,15,06,37,6.80
2020,04,15,06,38,6.80
2020,04,15,06,39,6.80
2020,04,15,06,40,6.80
2020,04,15,06,41,6.80
2020,04,15,06,42,6.80
2020,04,15,06,43,6.80
2020,04,15,06,44,6.80
2020,04,15,06,45,6.80
2020,04,15,06,46,6.80
2020,04,15,06,47,6.80
2020,04,15,06,48,6.80
2020,04,15,06,49,6.80
2020,04,15,06,50,6.80
2020,04,15,06,51,6.80
2020,04,15,06,52,6.80
2020,04,15,06,53,6.90
2020,04,15,06,54,6.80
2020,04,15,06,55,6.80
2020,04,15,06,56,6.90
2020,04,15,06,57,6.90
2020,04,15,06,58,6.90
2020,04,15,06,59,6.90
2020,04,15,07,00,6.90
2020,04,15,07,01,6.90
2020,04,15,07,02,6.90
2020,04,15,07,03,6.90
2020,04,15,07,04,6.90
2020,04,15,07,05,6.90
2020,04,15,07,06,7.00
2020,04,15,07,07,7.00
2020,04,15,07,08,7.00
2020,04,15,07,09,7.10
2020,04,15,07,10,7.10
2020,04,15,07,11,7.10
2020,04,15,07,12,7.10
2020,04,15,07,13,7.20
2020,04,15,07,14,7.20
2020,04,15,07,15,7.20
2020,04,15,07,16,7.20
2020,04,15,07,17,7.20
2020,04,15,07,18,7.20
2020,04,15,07,19,7.30
2020,04,15,07,20,7.30
2020,04,15,07,21,7.30
2020,04,15,07,22,7.30
2020,04,15,07,23,7.30
2020,04,15,07,24,7.30
2020,04,15,07,25,7.30
2020,04,15,07,26,7.40
2020,04,15,07,27,7.40
2020,04,15,07,28,7.40
2020,04,15,07,29,7.40
2020,04,15,07,30,7.50
2020,04,15,07,31,7.50
2020,04,15,07,32,7.50
2020,04,15,07,33,7.60
2020,04,15,07,34,7.60
2020,04,15,07,35,7.60
2020,04,15,07,36,7.60
2020,04,15,07,37,7.70
2020,04,15,07,38,7.70
2020,04,15,07,39,7.70
2020,04,15,07,40,7.80
2020,04,15,07,41,7.80
2020,04,15,07,42,7.80
2020,04,15,07,43,7.90
2020,04,15,07,44,7.90
2020,04,15,07,45,7.90
2020,04,15,07,46,8.00
2020,04,15,07,47,8.00
2020,04,15,07,48,8.10
2020,04,15,07,49,8.10
2020,04,15,07,50,8.10
2020,04,15,07,51,8.10
2020,04,15,07,52,8.20
2020,04,15,07,53,8.20
2020,04,15,07,54,8.20
2020,04,15,07,55,8.20
2020,04,15,07,56,8.20
2020,04,15,07,57,8.20
2020,04,15,07,58,8.20
2020,04,15,07,59,8.30
2020,04,15,08,00,8.30
2020,04,15,08,01,8.30
2020,04,15,08,02,8.30
2020,04,15,08,03,8.30
2020,04,15,08,04,8.30
2020,04,15,08,05,8.40
2020,04,15,08,06,8.40
2020,04,15,08,07,8.40
2020,04,15,08,08,8.40
2020,04,15,08,09,8.40
2020,04,15,08,10,8.40
2020,04,15,08,11,8.50
2020,04,15,08,12,8.40
2020,04,15,08,13,8.50
2020,04,15,08,14,8.50
2020,04,15,08,15,8.50
2020,04,15,08,16,8.50
2020,04,15,08,17,8.50
2020,04,15,08,18,8.60
2020,04,15,08,19,8.60
2020,04,15,08,20,8.60
2020,04,15,08,21,8.70
2020,04,15,08,22,8.70
2020,04,15,08,23,8.70
2020,04,15,08,24,8.80
2020,04,15,08,25,8.80
2020,04,15,08,26,8.90
2020,04,15,08,27,8.90
2020,04,15,08,28,9.00
2020,04,15,08,29,9.00
2020,04,15,08,30,9.10
2020,04,15,08,31,9.20
2020,04,15,08,32,9.20
2020,04,15,08,33,9.30
2020,04,15,08,34,9.30
2020,04,15,08,35,9.40
2020,04,15,08,36,9.40
2020,04,15,08,37,9.50
2020,04,15,08,38,9.50
2020,04,15,08,39,9.60
2020,04,15,08,40,9.60
2020,04,15,08,41,9.60
2020,04,15,08,42,9.60
2020,04,15,08,43,9.70
2020,04,15,08,44,9.70
2020,04,15,08,45,9.70
2020,04,15,08,46,9.70
2020,04,15,08,47,9.80
2020,04,15,08,48,9.80
2020,04,15,08,49,9.80
2020,04,15,08,50,9.90
2020,04,15,08,51,9.90
2020,04,15,08,52,9.90
2020,04,15,08,53,10.00
2020,04,15,08,54,10.00
2020,04,15,08,55,10.00
2020,04,15,08,56,10.10
2020,04,15,08,57,10.10
2020,04,15,08,58,10.10
2020,04,15,08,59,10.20
2020,04,15,09,00,10.20
2020,04,15,09,01,10.20
2020,04,15,09,02,10.20
2020,04,15,09,03,10.20
2020,04,15,09,04,10.20
2020,04,15,09,05,10.20
2020,04,15,09,06,10.20
2020,04,15,09,07,10.20
2020,04,15,09,08,10.20
2020,04,15,09,09,10.20
2020,04,15,09,10,10.20
2020,04,15,09,11,10.20
2020,04,15,09,12,10.20
2020,04,15,09,13,10.20
2020,04,15,09,14,10.20
2020,04,15,09,15,10.20
2020,04,15,09,16,10.10
2020,04,15,09,17,10.10
2020,04,15,09,18,10.10
2020,04,15,09,19,10.20
2020,04,15,09,20,10.20
2020,04,15,09,21,10.20
2020,04,15,09,22,10.30
2020,04,15,09,23,10.30
2020,04,15,09,24,10.40
2020,04,15,09,25,10.40
2020,04,15,09,26,10.40
2020,04,15,09,27,10.50
2020,04,15,09,28,10.50
2020,04,15,09,29,10.60
2020,04,15,09,30,10.60
2020,04,15,09,31,10.70
2020,04,15,09,32,10.70
2020,04,15,09,33,10.70
2020,04,15,09,34,10.70
2020,04,15,09,35,10.80
2020,04,15,09,36,10.80
2020,04,15,09,37,10.90
2020,04,15,09,38,10.90
2020,04,15,09,39,10.90
2020,04,15,09,40,11.00
2020,04,15,09,41,11.10
2020,04,15,09,42,11.10
2020,04,15,09,43,11.20
2020,04,15,09,44,11.20
2020,04,15,09,45,11.20
2020,04,15,09,46,11.20
2020,04,15,09,47,11.20
2020,04,15,09,48,11.10
2020,04,15,09,49,11.10
2020,04,15,09,50,11.00
2020,04,15,09,51,11.00
2020,04,15,09,52,10.90
2020,04,15,09,53,10.90
2020,04,15,09,54,10.80
2020,04,15,09,55,10.80
2020,04,15,09,56,10.70
2020,04,15,09,57,10.70
2020,04,15,09,58,10.70
2020,04,15,09,59,10.60
2020,04,15,10,00,10.60
2020,04,15,10,01,10.70
2020,04,15,10,02,10.70
2020,04,15,10,03,10.70
2020,04,15,10,04,10.70
2020,04,15,10,05,10.70
2020,04,15,10,06,10.70
2020,04,15,10,07,10.80
2020,04,15,10,08,10.80
2020,04,15,10,09,10.80
2020,04,15,10,10,10.80
2020,04,15,10,11,10.80
2020,04,15,10,12,10.90
2020,04,15,10,13,11.00
2020,04,15,10,14,11.00
2020,04,15,10,15,11.10
2020,04,15,10,16,11.10
2020,04,15,10,17,11.10
2020,04,15,10,18,11.10
2020,04,15,10,19,11.10
2020,04,15,10,20,11.20
2020,04,15,10,21,11.20
2020,04,15,10,22,11.20
2020,04,15,10,23,11.20
2020,04,15,10,24,11.30
2020,04,15,10,25,11.30
2020,04,15,10,26,11.30
2020,04,15,10,27,11.30
2020,04,15,10,28,11.30
2020,04,15,10,29,11.40
2020,04,15,10,30,11.40
2020,04,15,10,31,11.40
2020,04,15,10,32,11.40
2020,04,15,10,33,11.40
2020,04,15,10,34,11.40
2020,04,15,10,35,11.50
2020,04,15,10,36,11.60
2020,04,15,10,37,11.60
2020,04,15,10,38,11.70
2020,04,15,10,39,11.80
2020,04,15,10,40,11.90
2020,04,15,10,41,12.00
2020,04,15,10,42,12.20
2020,04,15,10,43,12.30
2020,04,15,10,44,12.30
2020,04,15,10,45,12.40
2020,04,15,10,46,12.50
2020,04,15,10,47,12.60
2020,04,15,10,48,12.70
2020,04,15,10,49,12.80
2020,04,15,10,50,12.90
2020,04,15,10,51,13.00
2020,04,15,10,52,13.10
2020,04,15,10,53,13.10
2020,04,15,10,54,13.10
2020,04,15,10,55,13.10
2020,04,15,10,56,13.10
2020,04,15,10,57,13.20
2020,04,15,10,58,13.30
2020,04,15,10,59,13.30
2020,04,15,11,00,13.30
2020,04,15,11,01,13.30
2020,04,15,11,02,13.30
2020,04,15,11,03,13.30
2020,04,15,11,04,13.30
2020,04,15,11,05,13.30
2020,04,15,11,06,13.40
2020,04,15,11,07,13.40
2020,04,15,11,08,13.40
2020,04,15,11,09,13.40
2020,04,15,11,10,13.50
2020,04,15,11,11,13.60
2020,04,15,11,12,13.70
2020,04,15,11,13,13.80
2020,04,15,11,14,13.90
2020,04,15,11,15,13.90
2020,04,15,11,16,14.00
2020,04,15,11,17,14.10
2020,04,15,11,18,14.20
2020,04,15,11,19,14.30
2020,04,15,11,20,14.30
2020,04,15,11,21,14.30
2020,04,15,11,22,14.30
2020,04,15,11,23,14.30
2020,04,15,11,24,14.30
2020,04,15,11,25,14.20
2020,04,15,11,26,14.20
2020,04,15,11,27,14.20
2020,04,15,11,28,14.20
2020,04,15,11,29,14.20
2020,04,15,11,30,14.20
2020,04,15,11,31,14.20
2020,04,15,11,32,14.30
2020,04,15,11,33,14.30
2020,04,15,11,34,14.30
2020,04,15,11,35,14.40
2020,04,15,11,36,14.40
2020,04,15,11,37,14.50
2020,04,15,11,38,14.40
2020,04,15,11,39,14.40
2020,04,15,11,40,14.50
2020,04,15,11,41,14.50
2020,04,15,11,42,14.40
2020,04,15,11,43,14.40
2020,04,15,11,44,14.30
2020,04,15,11,45,14.30
2020,04,15,11,46,14.40
2020,04,15,11,47,14.40
2020,04,15,11,48,14.50
2020,04,15,11,49,14.40
2020,04,15,11,50,14.50
2020,04,15,11,51,14.50
2020,04,15,11,52,14.40
2020,04,15,11,53,14.40
2020,04,15,11,54,14.40
2020,04,15,11,55,14.40
2020,04,15,11,56,14.50
2020,04,15,11,57,14.60
2020,04,15,11,58,14.70
2020,04,15,11,59,14.70
2020,04,15,12,00,14.70
2020,04,15,12,01,14.80
2020,04,15,12,02,14.80
2020,04,15,12,03,14.80
2020,04,15,12,04,14.80
2020,04,15,12,05,14.90
2020,04,15,12,06,14.90
2020,04,15,12,07,14.90
2020,04,15,12,08,14.90
2020,04,15,12,09,14.80
2020,04,15,12,10,14.70
2020,04,15,12,11,14.60
2020,04,15,12,12,14.60
2020,04,15,12,13,14.60
2020,04,15,12,14,14.70
2020,04,15,12,15,14.70
2020,04,15,12,16,14.70
2020,04,15,12,17,14.70
2020,04,15,12,18,14.80
2020,04,15,12,19,14.80
2020,04,15,12,20,14.80
2020,04,15,12,21,14.80
2020,04,15,12,22,14.80
2020,04,15,12,23,14.80
2020,04,15,12,24,14.80
2020,04,15,12,25,14.90
2020,04,15,12,26,14.90
2020,04,15,12,27,14.90
2020,04,15,12,28,15.00
2020,04,15,12,29,15.00
2020,04,15,12,30,15.10
2020,04,15,12,31,15.10
2020,04,15,12,32,15.10
2020,04,15,12,33,15.10
2020,04,15,12,34,15.10
2020,04,15,12,35,15.10
2020,04,15,12,36,15.20
2020,04,15,12,37,15.20
2020,04,15,12,38,15.20
2020,04,15,12,39,15.20
2020,04,15,12,40,15.30
2020,04,15,12,41,15.30
2020,04,15,12,42,15.30
2020,04,15,12,43,15.40
2020,04,15,12,44,15.50
2020,04,15,12,45,15.50
2020,04,15,12,46,15.50
2020,04,15,12,47,15.50
2020,04,15,12,48,15.50
2020,04,15,12,49,15.50
2020,04,15,12,50,15.50
2020,04,15,12,51,15.50
2020,04,15,12,52,15.60
2020,04,15,12,53,15.60
2020,04,15,12,54,15.60
2020,04,15,12,55,15.60
2020,04,15,12,56,15.60
2020,04,15,12,57,15.60
2020,04,15,12,58,15.60
2020,04,15,12,59,15.70
2020,04,15,13,00,15.70
2020,04,15,13,01,15.70
2020,04,15,13,02,15.70
2020,04,15,13,03,15.70
2020,04,15,13,04,15.70
2020,04,15,13,05,15.70
2020,04,15,13,06,15.70
2020,04,15,13,07,15.70
2020,04,15,13,08,15.70
2020,04,15,13,09,15.80
2020,04,15,13,10,15.80
2020,04,15,13,11,15.90
2020,04,15,13,12,15.90
2020,04,15,13,13,16.00
2020,04,15,13,14,16.10
2020,04,15,13,15,16.20
2020,04,15,13,16,16.20
2020,04,15,13,17,16.30
2020,04,15,13,18,16.30
2020,04,15,13,19,16.40
2020,04,15,13,20,16.50
2020,04,15,13,21,16.70
2020,04,15,13,22,16.80
2020,04,15,13,23,16.80
2020,04,15,13,24,16.90
2020,04,15,13,25,17.00
2020,04,15,13,26,17.00
2020,04,15,13,27,17.10
2020,04,15,13,28,17.10
2020,04,15,13,29,17.10
2020,04,15,13,30,17.00
2020,04,15,13,31,16.90
2020,04,15,13,32,16.90
2020,04,15,13,33,16.80
2020,04,15,13,34,16.90
2020,04,15,13,35,16.90
2020,04,15,13,36,16.90
2020,04,15,13,37,16.90
2020,04,15,13,38,16.80
2020,04,15,13,39,16.80
2020,04,15,13,40,16.80
2020,04,15,13,41,16.80
2020,04,15,13,42,16.80
2020,04,15,13,43,16.70
2020,04,15,13,44,16.70
2020,04,15,13,45,16.80
2020,04,15,13,46,16.80
2020,04,15,13,47,16.90
2020,04,15,13,48,16.90
2020,04,15,13,49,16.90
2020,04,15,13,50,17.00
2020,04,15,13,51,17.00
2020,04,15,13,52,17.00
2020,04,15,13,53,17.00
2020,04,15,13,54,16.90
2020,04,15,13,55,16.80
2020,04,15,13,56,16.80
2020,04,15,13,57,16.80
2020,04,15,13,58,16.90
2020,04,15,13,59,16.90
2020,04,15,14,00,16.90
2020,04,15,14,01,16.90
2020,04,15,14,02,16.90
2020,04,15,14,03,16.90
2020,04,15,14,04,16.90
2020,04,15,14,05,17.00
2020,04,15,14,06,17.00
2020,04,15,14,07,17.00
2020,04,15,14,08,16.90
2020,04,15,14,09,16.90
2020,04,15,14,10,16.90
2020,04,15,14,11,16.80
2020,04,15,14,12,16.80
2020,04,15,14,13,16.80
2020,04,15,14,14,16.70
2020,04,15,14,15,16.70
2020,04,15,14,16,16.60
2020,04,15,14,17,16.60
2020,04,15,14,18,16.60
2020,04,15,14,19,16.60
2020,04,15,14,20,16.60
2020,04,15,14,21,16.60
2020,04,15,14,22,16.60
2020,04,15,14,23,16.60
2020,04,15,14,24,16.60
2020,04,15,14,25,16.60
2020,04,15,14,26,16.60
2020,04,15,14,27,16.70
2020,04,15,14,28,16.70
2020,04,15,14,29,16.80
2020,04,15,14,30,16.80
2020,04,15,14,31,16.80
2020,04,15,14,32,16.80
2020,04,15,14,33,16.90
2020,04,15,14,34,16.90
2020,04,15,14,35,17.00
2020,04,15,14,36,17.10
2020,04,15,14,37,17.10
2020,04,15,14,38,17.10
2020,04,15,14,39,17.20
2020,04,15,14,40,17.20
2020,04,15,14,41,17.20
2020,04,15,14,42,17.20
2020,04,15,14,43,17.30
2020,04,15,14,44,17.30
2020,04,15,14,45,17.30
2020,04,15,14,46,17.40
2020,04,15,14,47,17.40
2020,04,15,14,48,17.40
2020,04,15,14,49,17.40
2020,04,15,14,50,17.40
2020,04,15,14,51,17.40
2020,04,15,14,52,17.40
2020,04,15,14,53,17.40
2020,04,15,14,54,17.40
2020,04,15,14,55,17.40
2020,04,15,14,56,17.30
2020,04,15,14,57,17.30
2020,04,15,14,58,17.30
2020,04,15,14,59,17.30
2020,04,15,15,00,17.30
2020,04,15,15,01,17.30
2020,04,15,15,02,17.30
2020,04,15,15,03,17.30
2020,04,15,15,04,17.20
2020,04,15,15,05,17.20
2020,04,15,15,06,17.20
2020,04,15,15,07,17.20
2020,04,15,15,08,17.10
2020,04,15,15,09,17.00
2020,04,15,15,10,17.00
2020,04,15,15,11,16.90
2020,04,15,15,12,17.00
2020,04,15,15,13,17.00
2020,04,15,15,14,17.10
2020,04,15,15,15,17.10
2020,04,15,15,16,17.20
2020,04,15,15,17,17.20
2020,04,15,15,18,17.10
2020,04,15,15,19,17.10
2020,04,15,15,20,17.10
2020,04,15,15,21,17.10
2020,04,15,15,22,17.10
2020,04,15,15,23,17.10
2020,04,15,15,24,17.10
2020,04,15,15,25,17.10
2020,04,15,15,26,17.20
2020,04,15,15,27,17.30
2020,04,15,15,28,17.30
2020,04,15,15,29,17.30
2020,04,15,15,30,17.30
2020,04,15,15,31,17.30
2020,04,15,15,32,17.30
2020,04,15,15,33,17.30
2020,04,15,15,34,17.30
2020,04,15,15,35,17.40
2020,04,15,15,36,17.40
2020,04,15,15,37,17.40
2020,04,15,15,38,17.50
2020,04,15,15,39,17.60
2020,04,15,15,40,17.60
2020,04,15,15,41,17.70
2020,04,15,15,42,17.70
2020,04,15,15,43,17.80
2020,04,15,15,44,17.80
2020,04,15,15,45,17.80
2020,04,15,15,46,17.80
2020,04,15,15,47,17.80
2020,04,15,15,48,17.90
2020,04,15,15,49,17.80
2020,04,15,15,50,17.80
2020,04,15,15,51,17.80
2020,04,15,15,52,17.80
2020,04,15,15,53,17.80
2020,04,15,15,54,17.70
2020,04,15,15,55,17.70
2020,04,15,15,56,17.80
2020,04,15,15,57,17.80
2020,04,15,15,58,17.80
2020,04,15,15,59,17.80
2020,04,15,16,00,17.70
2020,04,15,16,01,17.70
2020,04,15,16,02,17.70
2020,04,15,16,03,17.70
2020,04,15,16,04,17.70
2020,04,15,16,05,17.80
2020,04,15,16,06,17.80
2020,04,15,16,07,17.80
2020,04,15,16,08,17.80
2020,04,15,16,09,17.80
2020,04,15,16,10,17.80
2020,04,15,16,11,17.80
2020,04,15,16,12,17.80
2020,04,15,16,13,17.80
2020,04,15,16,14,17.80
2020,04,15,16,15,17.80
2020,04,15,16,16,17.80
2020,04,15,16,17,17.80
2020,04,15,16,18,17.90
2020,04,15,16,19,17.90
2020,04,15,16,20,17.90
2020,04,15,16,21,17.90
2020,04,15,16,22,17.90
2020,04,15,16,23,18.00
2020,04,15,16,24,18.10
2020,04,15,16,25,18.10
2020,04,15,16,26,18.10
2020,04,15,16,27,18.20
2020,04,15,16,28,18.20
2020,04,15,16,29,18.20
2020,04,15,16,30,18.20
2020,04,15,16,31,18.20
2020,04,15,16,32,18.10
2020,04,15,16,33,18.10
2020,04,15,16,34,18.10
2020,04,15,16,35,18.10
2020,04,15,16,36,18.10
2020,04,15,16,37,18.00
2020,04,15,16,38,18.00
2020,04,15,16,39,18.00
2020,04,15,16,40,18.00
2020,04,15,16,41,18.00
2020,04,15,16,42,18.10
2020,04,15,16,43,18.10
2020,04,15,16,44,18.10
2020,04,15,16,45,18.10
2020,04,15,16,46,18.10
2020,04,15,16,47,18.20
2020,04,15,16,48,18.20
2020,04,15,16,49,18.30
2020,04,15,16,50,18.30
2020,04,15,16,51,18.30
2020,04,15,16,52,18.30
2020,04,15,16,53,18.40
2020,04,15,16,54,18.40
2020,04,15,16,55,18.40
2020,04,15,16,56,18.40
2020,04,15,16,57,18.40
2020,04,15,16,58,18.40
2020,04,15,16,59,18.50
2020,04,15,17,00,18.50
2020,04,15,17,01,18.60
2020,04,15,17,02,18.60
2020,04,15,17,03,18.60
2020,04,15,17,04,18.60
2020,04,15,17,05,18.50
2020,04,15,17,06,18.50
2020,04,15,17,07,18.40
2020,04,15,17,08,18.40
2020,04,15,17,09,18.40
2020,04,15,17,10,18.30
2020,04,15,17,11,18.30
2020,04,15,17,12,18.30
2020,04,15,17,13,18.40
2020,04,15,17,14,18.40
2020,04,15,17,15,18.40
2020,04,15,17,16,18.40
2020,04,15,17,17,18.40
2020,04,15,17,18,18.40
2020,04,15,17,19,18.50
2020,04,15,17,20,18.50
2020,04,15,17,21,18.60
2020,04,15,17,22,18.60
2020,04,15,17,23,18.60
2020,04,15,17,24,18.60
2020,04,15,17,25,18.50
2020,04,15,17,26,18.50
2020,04,15,17,27,18.50
2020,04,15,17,28,18.60
2020,04,15,17,29,18.60
2020,04,15,17,30,18.60
2020,04,15,17,31,18.60
2020,04,15,17,32,18.50
2020,04,15,17,33,18.50
2020,04,15,17,34,18.50
2020,04,15,17,35,18.50
2020,04,15,17,36,18.40
2020,04,15,17,37,18.30
2020,04,15,17,38,18.20
2020,04,15,17,39,18.20